SP5IZJ-2 Weather Reports


time (UTC)temp
C
wind
direction
speed
KPH
gust
KPH
rain 1hr
cm
rain 24hr
cm
rain mn
cm
humidity
%
barometer
mb
20260905211957 12 23 9.7 17.7 0.00 0.00 0.00 85 1007.1
20260905211257 13 23 11.3 20.9 0.00 0.00 0.00 84 1007.1
20260905210557 13 45 14.5 25.7 0.00 0.00 0.00 83 1006.9
20260905205857 13 45 12.9 25.7 0.00 0.00 0.00 82 1006.9
20260905205157 13 45 14.5 25.7 0.00 0.00 0.00 82 1006.8
20260905204458 13 45 12.9 22.5 0.00 0.00 0.00 82 1006.7
20260905203758 13 45 9.7 24.1 0.00 0.00 0.00 82 1006.6
20260905203058 13 45 9.7 20.9 0.00 0.00 0.00 82 1006.6
20260905202358 13 45 6.4 16.1 0.00 0.00 0.00 80 1006.7
20260905200945 13 90 1.6 11.3 0.00 0.00 0.00 78 1006.5
20260905200226 14 68 8.0 16.1 0.00 0.00 0.00 76 1006.4
20260905195534 14 90 6.4 14.5 0.00 0.00 0.00 75 1006.3
20260905194818 15 68 8.0 19.3 0.00 0.00 0.00 75 1006.3
20260905194159 15 68 9.7 20.9 0.00 0.00 0.00 75 1006.4
20260905193500 15 68 8.0 19.3 0.00 0.00 0.00 76 1006.4
20260905192800 15 68 9.7 20.9 0.00 0.00 0.00 75 1006.3
20260905192100 15 68 14.5 24.1 0.00 0.00 0.00 75 1006.3
20260905191400 15 45 16.1 29.0 0.00 0.00 0.00 76 1006.1
20260905190627 15 23 14.5 33.8 0.00 0.00 0.00 77 1006.0
20260905185215 14 23 14.5 24.1 0.00 0.00 0.00 81 1006.0
20260905184532 13 23 11.3 20.9 0.00 0.00 0.00 83 1006.2
20260905183844 13 23 12.9 22.5 0.00 0.00 0.00 84 1006.1
20260905183201 13 0 9.7 16.1 0.00 0.00 0.00 84 1006.2
20260905182416 13 0 8.0 14.5 0.00 0.05 0.00 83 1006.1
20260905181102 13 23 4.8 11.3 0.00 0.05 0.00 80 1006.5
20260905180402 14 23 3.2 9.7 0.00 0.05 0.00 78 1006.3
20260905174929 15 23 6.4 12.9 0.00 0.05 0.00 75 1006.1
20260905174302 15 23 6.4 11.3 0.00 0.05 0.00 75 1005.9
20260905173603 15 23 4.8 9.7 0.00 0.05 0.00 73 1006.0
20260905172902 15 45 3.2 11.3 0.00 0.05 0.00 72 1006.0
20260905172203 15 45 4.8 14.5 0.00 0.05 0.00 71 1005.9
20260905170722 16 45 8.0 17.7 0.00 0.05 0.00 69 1005.8
20260905165339 17 23 9.7 20.9 0.00 0.05 0.00 67 1005.7
20260905164631 17 23 8.0 17.7 0.00 0.05 0.00 66 1005.9
20260905163959 17 23 9.7 20.9 0.00 0.05 0.00 67 1005.9
20260905163219 16 45 16.1 24.1 0.00 0.05 0.00 69 1005.7
20260905162539 17 23 16.1 29.0 0.00 0.05 0.00 66 1005.5
20260905161904 16 23 11.3 19.3 0.00 0.05 0.00 66 1005.6
20260905161205 16 23 11.3 22.5 0.00 0.05 0.00 66 1005.6
20260905160505 16 45 9.7 22.5 0.00 0.05 0.00 66 1005.5
20260905155024 17 23 11.3 20.9 0.00 0.05 0.00 63 1005.6
20260905154324 17 23 12.9 37.0 0.00 0.05 0.00 62 1005.3
20260905153625 17 45 12.9 25.7 0.00 0.05 0.00 63 1005.4
20260905152921 16 45 14.5 27.4 0.00 0.05 0.00 64 1005.4
20260905152225 16 23 16.1 24.1 0.00 0.05 0.00 64 1005.2
20260905151606 16 23 17.7 32.2 0.00 0.05 0.00 63 1005.6
20260905150157 17 23 20.9 30.6 0.00 0.05 0.00 64 1005.6
20260905145426 17 45 20.9 33.8 0.00 0.05 0.00 63 1005.6
20260905144729 17 23 22.5 38.6 0.00 0.05 0.00 60 1005.6
20260905144030 18 23 22.5 37.0 0.00 0.05 0.00 59 1005.3
20260905143322 18 23 22.5 32.2 0.00 0.05 0.00 56 1005.1
20260905142634 19 45 22.5 40.2 0.00 0.05 0.00 55 1004.9
20260905141923 19 23 19.3 38.6 0.00 0.05 0.00 54 1004.7
20260905141251 20 45 25.7 38.6 0.00 0.05 0.00 52 1004.8
20260905135823 21 23 17.7 40.2 0.00 0.05 0.00 49 1004.6
20260905135123 22 23 20.9 40.2 0.00 0.05 0.00 47 1004.5
20260905134455 22 45 22.5 57.9 0.00 0.05 0.00 46 1004.2
20260905133747 22 23 20.9 57.9 0.00 0.05 0.00 46 1004.1
20260905133024 22 23 17.7 30.6 0.00 0.05 0.00 46 1004.2
20260905132328 22 45 20.9 30.6 0.00 0.05 0.00 47 1004.2
20260905131624 21 23 20.9 35.4 0.00 0.05 0.00 50 1004.3
20260905130952 21 23 19.3 35.4 0.00 0.05 0.00 50 1004.5
20260905130224 22 45 22.5 37.0 0.00 0.05 0.00 49 1004.3
20260905125552 21 45 14.5 25.7 0.00 0.05 0.00 52 1004.3
20260905124910 20 45 14.5 27.4 0.00 0.05 0.00 52 1004.4
20260905124518 21 45 17.7 33.8 0.00 0.05 0.00 52 1004.6
20260905124210 21 45 17.7 33.8 0.00 0.05 0.00 52 1004.6
20260905123425 22 45 20.9 32.2 0.00 0.05 0.00 49 1004.4
20260905122741 22 23 20.9 37.0 0.00 0.05 0.00 49 1004.6
20260905122101 21 45 19.3 30.6 0.00 0.05 0.00 51 1004.5
20260905121330 21 90 17.7 32.2 0.00 0.05 0.00 53 1004.6
20260905120627 20 68 16.1 30.6 0.00 0.05 0.00 53 1004.8
20260905115934 21 90 17.7 30.6 0.00 0.05 0.00 51 1004.7
20260905115246 21 45 14.5 27.4 0.00 0.05 0.00 52 1004.8
20260905113834 20 45 16.1 30.6 0.00 0.05 0.00 54 1004.7
20260905113146 20 45 17.7 30.6 0.00 0.05 0.00 53 1004.7
20260905112427 20 68 17.7 27.4 0.00 0.05 0.00 52 1004.6
20260905111743 20 90 17.7 33.8 0.00 0.05 0.00 51 1004.4
20260905105627 19 68 16.1 27.4 0.00 0.05 0.00 54 1004.3
20260905104947 19 359 0.0 0.0 0.00 0.05 0.00 54 1004.5
20260905104232 20 90 16.1 24.1 0.00 0.05 0.00 54 1004.6
20260905103613 20 68 19.3 30.6 0.00 0.05 0.00 53 1004.4
20260905102129 22 45 19.3 37.0 0.00 0.05 0.00 52 1003.9
20260905101433 21 45 17.7 30.6 0.00 0.05 0.00 54 1003.9
20260905100733 21 23 24.1 35.4 0.00 0.05 0.00 54 1003.9
20260905095333 22 23 20.9 41.8 0.00 0.05 0.00 53 1003.9
20260905094641 21 45 19.3 35.4 0.00 0.05 0.00 55 1003.8
20260905093934 20 23 17.7 33.8 0.00 0.05 0.00 57 1003.8
20260905093230 21 45 19.3 33.8 0.00 0.05 0.00 56 1003.9
20260905092530 22 45 22.5 40.2 0.00 0.05 0.00 55 1003.7
20260905091850 21 45 20.9 40.2 0.00 0.05 0.00 55 1003.6
20260905091134 21 45 20.9 33.8 0.00 0.05 0.00 56 1003.5
20260905090503 21 68 19.3 27.4 0.00 0.05 0.00 57 1003.5
20260905085730 21 45 20.9 33.8 0.00 0.05 0.00 58 1003.4
20260905084335 20 45 20.9 30.6 0.00 0.05 0.00 61 1003.4
20260905083639 20 23 25.7 40.2 0.00 0.05 0.00 60 1003.4
20260905082231 19 45 20.9 35.4 0.00 0.05 0.00 65 1003.4
20260905081531 19 45 22.5 41.8 0.00 0.05 0.00 64 1003.3
20260905080840 19 45 19.3 41.8 0.00 0.05 0.00 66 1003.3
20260905080148 19 23 20.9 35.4 0.00 0.05 0.00 64 1003.4
20260905075517 19 23 19.3 29.0 0.00 0.05 0.00 65 1003.3
20260905074732 19 23 19.3 33.8 0.00 0.05 0.00 67 1003.3
20260905074052 18 45 20.9 33.8 0.00 0.05 0.00 69 1003.1
20260905072656 17 45 19.3 27.4 0.00 0.05 0.00 72 1003.1
20260905072018 17 68 16.1 29.0 0.00 0.05 0.00 73 1003.1
20260905064454 17 45 19.3 38.6 0.00 0.05 0.00 73 1002.5
20260905064057 17 45 14.5 27.4 0.00 0.05 0.00 75 1002.3
20260905063734 17 45 14.5 27.4 0.00 0.05 0.00 75 1002.3
20260905063054 17 45 16.1 27.4 0.00 0.05 0.00 75 1002.3
20260905062334 17 45 14.5 27.4 0.00 0.05 0.00 75 1002.1
20260905061634 16 45 16.1 25.7 0.00 0.05 0.00 74 1001.9
20260905060947 16 68 12.9 25.7 0.00 0.05 0.00 77 1001.9
20260905060235 16 45 14.5 33.8 0.00 0.05 0.00 77 1002.1
20260905055555 16 23 14.5 32.2 0.00 0.05 0.00 78 1002.0
20260905054855 15 45 12.9 25.7 0.00 0.05 0.00 78 1002.0
20260905054135 15 45 9.7 22.5 0.00 0.05 0.00 77 1001.9
20260905053451 16 45 11.3 22.5 0.00 0.05 0.00 76 1001.9
20260905052735 16 23 9.7 20.9 0.00 0.05 0.00 75 1001.9
20260905052040 16 45 8.0 17.7 0.00 0.05 0.00 74 1001.9
20260905051340 16 45 11.3 20.9 0.00 0.05 0.00 75 1001.9
20260905050636 16 45 9.7 20.9 0.00 0.05 0.00 76 1001.8
20260905045936 15 45 11.3 20.9 0.00 0.05 0.00 76 1001.6
20260905045237 15 45 8.0 20.9 0.00 0.05 0.00 76 1001.4
20260905044536 15 45 9.7 20.9 0.00 0.05 0.00 77 1001.4
20260905043837 15 68 9.7 20.9 0.00 0.05 0.00 79 1001.3
20260905043137 15 68 9.7 25.7 0.00 0.05 0.00 78 1001.0
20260905042438 15 68 12.9 25.7 0.00 0.05 0.00 78 1001.1
20260905041741 15 45 12.9 25.7 0.00 0.05 0.00 78 1001.1
20260905041037 15 90 14.5 25.7 0.00 0.05 0.00 78 1000.9
20260905040337 15 45 17.7 35.4 0.00 0.05 0.00 77 1000.7
20260905034950 16 45 14.5 20.9 0.00 0.05 0.00 77 1000.2
20260905034238 16 45 16.1 33.8 0.00 0.05 0.00 78 1000.0
20260905033538 16 23 17.7 27.4 0.00 0.05 0.00 79 999.9
20260905032838 16 45 16.1 37.0 0.00 0.05 0.00 81 999.7
20260905032139 16 23 14.5 29.0 0.00 0.05 0.00 83 999.7
20260905031515 16 23 14.5 29.0 0.00 0.05 0.00 83 999.6
20260905030739 16 45 14.5 25.7 0.00 0.05 0.00 84 999.4
20260905030039 16 45 14.5 27.4 0.00 0.05 0.00 84 999.4
20260905025339 16 45 16.1 29.0 0.00 0.05 0.00 84 999.4
20260905024647 16 23 19.3 33.8 0.00 0.05 0.00 84 999.0
20260905024012 16 45 14.5 30.6 0.00 0.05 0.00 84 999.0
20260905023325 16 23 16.1 30.6 0.00 0.05 0.00 84 999.0
20260905022620 16 23 19.3 30.6 0.00 0.05 0.00 84 999.1
20260905021840 16 23 16.1 29.0 0.00 0.05 0.00 84 999.0
20260905021141 16 23 16.1 29.0 0.00 0.05 0.00 84 999.0
20260905020526 16 359 0.0 0.0 0.00 0.05 0.00 84 999.0
20260905015826 16 23 17.7 32.2 0.00 0.05 0.00 84 998.7
20260905015125 16 23 17.7 33.8 0.00 0.05 0.00 84 998.6
20260905014426 16 359 0.0 0.0 0.00 0.05 0.00 83 998.5
20260905013726 100 359 0.0 0.0 0.00 0.00 0.00 100
20260905012949 17 45 20.9 33.8 0.00 0.05 0.00 83 998.5
20260905012327 17 45 20.9 35.4 0.00 0.05 0.00 82 998.5
20260905011610 17 45 20.9 33.8 0.00 0.05 0.00 82 998.5
20260905010906 17 45 19.3 33.8 0.00 0.05 0.00 83 998.5
20260905010154 17 45 20.9 27.4 0.00 0.05 0.00 82 998.3
20260905005526 17 45 19.3 29.0 0.00 0.05 0.00 83 998.0
20260905004827 17 45 17.7 27.4 0.00 0.05 0.00 83 997.9
20260905004128 17 45 17.7 30.6 0.00 0.05 0.00 83 997.6
20260905002728 17 23 20.9 30.6 0.00 0.05 0.00 84 997.8
20260905002028 17 23 19.3 30.6 0.00 0.05 0.00 85 997.5
20260905001328 17 23 19.3 30.6 0.00 0.05 0.00 86 997.4
20260905000612 17 23 19.3 30.6 0.00 0.05 0.00 86 997.4
20260904235844 17 23 17.7 29.0 0.00 0.05 0.00 88 997.4
20260904235208 17 0 19.3 30.6 0.00 0.05 0.00 88 997.5
20260904234516 17 23 17.7 27.4 0.00 0.05 0.00 88 997.5
20260904233748 17 23 16.1 25.7 0.00 0.05 0.00 88 997.4
20260904232344 17 23 14.5 25.7 0.00 0.05 0.00 89 997.0
20260904231730 17 23 14.5 20.9 0.00 0.05 0.00 89 997.2
20260904230957 17 23 14.5 27.4 0.00 0.05 0.00 89 997.4
20260904230245 17 23 19.3 27.4 0.00 0.05 0.00 89 997.4
20260904225630 17 23 17.7 29.0 0.00 0.05 0.00 90 997.5
20260904224922 17 23 14.5 20.9 0.00 0.05 0.00 91 997.4
20260904224146 17 23 12.9 22.5 0.00 0.05 0.00 91 997.4
20260904223531 17 23 11.3 22.5 0.00 0.05 0.00 91 997.2
20260904222746 17 23 8.0 19.3 0.00 0.05 0.00 91 997.0
20260904222106 17 23 8.0 14.5 0.00 0.05 0.00 90 996.9
20260904221431 17 23 6.4 12.9 0.00 0.05 0.00 90 996.7
20260904220718 17 23 4.8 16.1 0.00 0.05 0.00 89 996.9
20260904220032 17 23 6.4 17.7 0.00 0.05 0.00 89 996.8
20260904215259 17 23 8.0 19.3 0.00 0.05 0.00 89 996.9
20260904214632 17 23 6.4 20.9 0.00 0.05 0.00 89 996.8
20260904213232 17 45 11.3 20.9 0.00 0.05 0.00 88 996.9
20260904212528 17 45 6.4 19.3 0.00 0.05 0.00 88 996.9